Waco, TX

7:51 AM CST on December 03, 2016 (GMT -0600)
Waco Regional

Weather History for KACT - October, 2014

Change the Weather History Date:

Saturday, October 4, 2014

  Actual Average Record
Temperature  
Mean Temperature 64 °F 72 °F  
Max Temperature 80 °F 84 °F 100 °F (1979)
Min Temperature 47 °F 60 °F 41 °F (1987)
Degree Days  
Heating Degree Days 1 1  
Month to date heating degree days 1 4  
Since 1 July heating degree days 1 10  
Cooling Degree Days 0 8  
Month to date cooling degree days 42 32  
Year to date cooling degree days 2556 2626  
Growing Degree Days 14 (Base 50)    
Moisture  
Dew Point 39 °F    
Average Humidity 50    
Maximum Humidity 86    
Minimum Humidity 13    
Precipitation  
Precipitation 0.00 in 0.11 in 3.32 in (1959)
Month to date precipitation 0.26 0.44  
Year to date precipitation 22.12 25.66  
Snow  
Snow 0.00 in 0.00 in 0.00 in ()
Month to date snowfall 0.0 0.0  
Since 1 July snowfall 0.0 0.0  
Since 1 September snowfall 0.0 0.0  
Snow Depth 0.00 in    
Sea Level Pressure  
Sea Level Pressure 30.13 in    
Wind  
Wind Speed 8 mph (SE)    
Max Wind Speed 18 mph    
Max Gust Speed 28 mph    
Visibility 10 miles    
Events      
T = Trace of Precipitation, MM = Missing Value Source: NWS Daily Summary

Daily Weather History Graph

Daily Weather History Graph

Search for Another Location

Airport or City:

Trip Planner

Search our weather history database for the weather conditions in past years. The results will help you decide how hot, cold, wet, or windy it might be!

Date:

Astronomy

Oct. 04, 2014 Rise Set
Actual Time 7:24 AM CDT 7:10 PM CDT
Civil Twilight 7:00 AM CDT 7:34 PM CDT
Nautical Twilight 6:32 AM CDT 8:02 PM CDT
Astronomical Twilight 6:03 AM CDT 8:30 PM CDT
Moon 4:34 PM CDT (10/4) 3:09 AM CDT (10/4)
Length of Visible Light 12h 33m
Length of Day
11h 45m
Waxing Gibbous, 81% of the Moon is Illuminated
Oct 4
Waxing Gibbous
Oct 8
Full
Oct 15
Last Quarter
Oct 23
New
Oct 30
First Quarter

Hourly Weather History & Observations

Time (CDT) Temp. Dew Point Humidity Pressure Visibility Wind Dir Wind Speed Gust Speed Precip Events Conditions
12:51 AM 59.0 °F 50.0 °F 72% 30.21 in 10.0 mi North 4.6 mph - N/A   Clear
1:51 AM 57.0 °F 48.9 °F 74% 30.21 in 10.0 mi North 4.6 mph - N/A   Clear
2:51 AM 57.0 °F 50.0 °F 77% 30.21 in 10.0 mi North 6.9 mph - N/A   Clear
3:51 AM 55.0 °F 48.9 °F 80% 30.21 in 10.0 mi North 6.9 mph - N/A   Clear
4:51 AM 53.1 °F 46.9 °F 80% 30.21 in 10.0 mi North 8.1 mph - N/A   Clear
5:51 AM 52.0 °F 45.0 °F 77% 30.21 in 10.0 mi North 3.5 mph - N/A   Clear
6:51 AM 48.9 °F 44.1 °F 83% 30.22 in 10.0 mi Calm Calm - N/A   Clear
7:51 AM 51.1 °F 43.0 °F 74% 30.22 in 10.0 mi Calm Calm - N/A   Clear
8:51 AM 57.9 °F 44.1 °F 60% 30.22 in 10.0 mi East 3.5 mph - N/A   Clear
9:51 AM 63.0 °F 41.0 °F 45% 30.23 in 10.0 mi Variable 3.5 mph - N/A   Clear
10:51 AM 69.1 °F 36.0 °F 30% 30.22 in 10.0 mi SE 9.2 mph - N/A   Clear
11:51 AM 73.9 °F 28.9 °F 19% 30.19 in 10.0 mi East 9.2 mph - N/A   Clear
12:51 PM 75.9 °F 28.0 °F 17% 30.17 in 10.0 mi ESE 8.1 mph - N/A   Clear
1:51 PM 77.0 °F 28.0 °F 17% 30.12 in 10.0 mi ESE 9.2 mph 17.3 mph N/A   Clear
2:51 PM 79.0 °F 26.1 °F 14% 30.08 in 10.0 mi SE 8.1 mph 17.3 mph N/A   Clear
3:51 PM 80.1 °F 25.0 °F 13% 30.05 in 10.0 mi SSE 11.5 mph - N/A   Clear
4:51 PM 79.0 °F 27.0 °F 15% 30.03 in 10.0 mi South 12.7 mph - N/A   Clear
5:51 PM 78.1 °F 30.0 °F 17% 30.01 in 10.0 mi South 11.5 mph - N/A   Clear
6:51 PM 73.9 °F 37.0 °F 26% 30.00 in 10.0 mi South 10.4 mph - N/A   Clear
7:51 PM 71.1 °F 39.0 °F 31% 29.99 in 10.0 mi South 10.4 mph - N/A   Clear
8:51 PM 69.1 °F 42.1 °F 38% 29.99 in 10.0 mi SSE 11.5 mph - N/A   Clear
9:51 PM 69.1 °F 43.0 °F 39% 29.97 in 10.0 mi South 15.0 mph 27.6 mph N/A   Clear
10:51 PM 68.0 °F 43.0 °F 40% 29.98 in 10.0 mi South 11.5 mph - N/A   Clear
11:51 PM 64.9 °F 45.0 °F 48% 29.98 in 10.0 mi SSE 9.2 mph - N/A   Clear